Location: Ashtead
(51.3000°N, 0.3000°W)
Time: 15:47:48
(UTC+00:00)

CZ-2C R/B - Pass Details

Date: 07 May 2025
Orbit: 781 x 868 km, 98.4° (Epoch: 12 May)

Event Time Altitude Azimuth Distance (km) Brightness Sun altitude
Exits shadow 23:09:35 - 99° (E) 2,729 5.1 -20.8°
Reaches altitude 10° 23:10:54 10° 89° (E) 2,379 4.9 -20.8°
Maximum altitude 23:13:58 16° 52° (NE) 1,985 4.9 -20.9°
Drops below altitude 10° 23:17:00 10° 16° (NNE) 2,364 5.9 -21.0°
Sets 23:20:11 0° 356° (N) 3,290 7.3 -21.1°
